World > North America > United States > Florida

San Mateo, Florida Regional Weather

Lat: 29.61N, Lon: 81.58W
Wx Zone: FLZ037
Feedback

San Mateo, FL Regional Weather

Expires:202002200600;;808406
ASUS42 KTBW 200518
RWRFL 
FLORIDA REGIONAL WEATHER ROUNDUP
NATIONAL WEATHER SERVICE TAMPA BAY RUSKIN FL
1200 AM EST THU FEB 20 2020

NOTE: "FAIR" INDICATES FEW OR NO CLOUDS BELOW 12,000 FEET WITH NO
SIGNIFICANT WEATHER AND/OR OBSTRUCTIONS TO VISIBILITY.


FLZ011-016>038-118-127-128-134-139-239-200600-
NORTH FLORIDA
  
CITY           SKY/WX    TMP DP  RH WIND       PRES   REMARKS
MARIANNA       CLOUDY    64  60  87 NE5       30.20                   
TALLAHASSEE    CLOUDY    70  61  73 NE7       30.19F                  
PERRY          FAIR      68  64  87 E6        30.20F                  
LIVE OAK       PTCLDY    66  63  88 NE7       30.21S                  
CROSS CITY     FAIR      66  64  91 NE6       30.19S                  
LAKE CITY      FAIR      61  59  94 E6        30.22F                  
GAINESVILLE    CLOUDY    65  62  90 NE5       30.23S                  
WILLISTON      MOCLDY    67  64  89 E10       30.20S                  
PALATKA        CLOUDY    64  61  88 NE9       30.21F                  
MAYPORT NAS    CLOUDY    61  60  97 N16       30.23F                  
JACKSONVILLE   CLOUDY    63  59  87 NE14      30.23F                  
JAX NAS        MOCLDY    65  60  84 NE14      30.24S                  
JAX CECIL      CLOUDY    64  61  88 VRB6G14   30.22F                  
FERNANDINA BEA CLOUDY    59 N/A N/A NE17      30.25S HAZE             
ST AUGUSTINE   MOCLDY    64  62  93 N12       30.23S                  
PALM COAST     FAIR      64  63  95 N5        30.20S                  

STATION/POSITION SKY/WX   TEMP    WIND        PRES    WAVE   SWELL
                          AIR SEA DIR/SP/G            HT/PER HT/PER
                          (F)     (DEG/KT/KT) (MB)    (FT/S) (FT/S)
SHELL POINT      NOT AVBL
KEATON BEACH               66      60/  8/ 11 1022.2F
CEDAR KEY                  67      40/  3/  4 1022.0F
FERNANDINA                 64 63              1024.4R
30.7N   81.3W                 60                N/A     3/ 4
MAYPORT                    62 64              1024.0R
31.4N   80.9W              58 59   40/ 21/ 23 1024.2F   6/ 7   2/ 8
ST AUGUSTINE               64 64  360/ 13/ 14 1023.0F

$$

SKY/WX - Weather  TMP - Temperature  DP - Dew Point  RH - Relative Humidity
WIND - Wind Direction/Speed PRES - Barometric Pressure VSB - Visibility
WCI - Wind Chill Index E13G22 Wind - East Wind 13 mph/Gusts of 22 mph
Florida Weather Map
What is UTC time?